UAE53P OMDB-LOWW

Flight info

Callsign UAE53P
Flight time N/A
Altitude 29000
Route ANVIX L223 TARDI N629 BOTAM Y855 LAKLU/N0494F300 Q204 NALKI G652 TOKRA DCT ALROK DCT BOSOB DCT ITRUX Y511 PMA Z712 PEGUR/N0491F320 Z712 WEJ L677 GESON Q777 RASDA DCT OTHON DCT VAXOS DCT BANRO UG80 IMR UN127 LMO DCT EVIVI L863 OKANA DCT DONIV DCT PARAK DCT BALUX DCT TORNO DCT NATEX NATEX2W
Aircraft B77W/H-SDE1E2E3FGHIJ2J3J4J5M1RWXY/LB1D1

Departure

Time N/A
Airport Dubai International Airport (OMDB)

Arrival

Time 2026-04-22 19:53
Airport Vienna International Airport (LOWW)
Time Latitude Longitude Altitude Speed Heading
2026-04-22 19:33 47.61374 18.14270 22293 ft 393 kts 291°
2026-04-22 19:33 47.62185 18.10414 21852 ft 390 kts 291°
2026-04-22 19:33 47.62991 18.06579 21424 ft 387 kts 291°
2026-04-22 19:33 47.63787 18.02783 21004 ft 384 kts 291°
2026-04-22 19:34 47.64578 17.99002 20593 ft 381 kts 291°
2026-04-22 19:34 47.65364 17.95241 20185 ft 379 kts 291°
2026-04-22 19:34 47.66132 17.91560 19785 ft 376 kts 291°
2026-04-22 19:34 47.66902 17.87856 19393 ft 373 kts 291°
2026-04-22 19:35 47.67665 17.84185 19005 ft 371 kts 291°
2026-04-22 19:35 47.68422 17.80533 18623 ft 368 kts 291°
2026-04-22 19:35 47.68919 17.78135 18366 ft 366 kts 291°
2026-04-22 19:35 47.69904 17.73366 17788 ft 363 kts 291°
2026-04-22 19:36 47.70569 17.69817 17379 ft 362 kts 286°
2026-04-22 19:36 47.71032 17.66290 16986 ft 361 kts 284°
2026-04-22 19:36 47.71454 17.62677 16578 ft 358 kts 284°
2026-04-22 19:36 47.71869 17.59038 16185 ft 356 kts 284°
2026-04-22 19:37 47.72283 17.55428 15803 ft 353 kts 284°
2026-04-22 19:37 47.72703 17.51828 15403 ft 350 kts 284°
2026-04-22 19:37 47.73121 17.48281 15021 ft 348 kts 284°
2026-04-22 19:37 47.73537 17.44785 14642 ft 345 kts 284°
2026-04-22 19:38 47.73957 17.41264 14265 ft 343 kts 284°
2026-04-22 19:38 47.74372 17.37781 13900 ft 340 kts 284°
2026-04-22 19:38 47.74778 17.34373 13512 ft 337 kts 284°
2026-04-22 19:38 47.75369 17.31063 13116 ft 325 kts 298°
2026-04-22 19:39 47.76500 17.28232 12832 ft 314 kts 310°
2026-04-22 19:39 47.77860 17.25707 12486 ft 310 kts 313°
2026-04-22 19:39 47.79229 17.23285 12110 ft 308 kts 314°
2026-04-22 19:39 47.80611 17.20862 11752 ft 306 kts 313°
2026-04-22 19:40 47.81990 17.18438 11387 ft 304 kts 313°
2026-04-22 19:40 47.83355 17.16030 10969 ft 304 kts 313°
2026-04-22 19:40 47.84702 17.13644 10581 ft 303 kts 313°
2026-04-22 19:40 47.86059 17.11232 10186 ft 303 kts 313°
2026-04-22 19:41 47.87403 17.08836 9753 ft 295 kts 313°
2026-04-22 19:41 47.88685 17.06542 9311 ft 286 kts 313°
2026-04-22 19:41 47.89969 17.04248 8898 ft 290 kts 313°
2026-04-22 19:41 47.91245 17.01964 8467 ft 283 kts 313°
2026-04-22 19:42 47.92494 16.99721 8031 ft 273 kts 313°
2026-04-22 19:42 47.93689 16.97576 7604 ft 264 kts 313°
2026-04-22 19:42 47.94843 16.95504 7202 ft 256 kts 313°
2026-04-22 19:42 47.95963 16.93491 6788 ft 249 kts 313°
2026-04-22 19:43 47.98115 16.89622 5977 ft 235 kts 313°
2026-04-22 19:43 47.99143 16.87772 5544 ft 228 kts 313°
2026-04-22 19:43 48.00133 16.85987 5142 ft 218 kts 313°
2026-04-22 19:44 48.01074 16.84288 4735 ft 207 kts 314°
2026-04-22 19:44 48.01957 16.82692 4425 ft 193 kts 314°
2026-04-22 19:44 48.02900 16.81399 4026 ft 174 kts 341°
2026-04-22 19:44 48.03996 16.81371 3979 ft 161 kts 21°
2026-04-22 19:45 48.04673 16.81874 4029 ft 168 kts 25°
2026-04-22 19:45 48.05712 16.82695 3974 ft 171 kts 25°
2026-04-22 19:45 48.06818 16.83569 4033 ft 187 kts 25°
2026-04-22 19:45 48.08029 16.85231 3989 ft 180 kts 65°
2026-04-22 19:46 48.08140 16.86484 4012 ft 187 kts 91°
2026-04-22 19:46 48.07639 16.88326 4023 ft 197 kts 115°
2026-04-22 19:46 48.06930 16.90118 4006 ft 202 kts 115°
2026-04-22 19:46 48.06029 16.91722 3957 ft 206 kts 145°
2026-04-22 19:47 48.04665 16.92276 3977 ft 207 kts 185°
2026-04-22 19:47 48.03352 16.91523 3984 ft 204 kts 225°
2026-04-22 19:47 48.02616 16.89801 4005 ft 195 kts 263°
2026-04-22 19:47 48.02513 16.87819 4021 ft 191 kts 275°
2026-04-22 19:48 48.02490 16.85831 4002 ft 191 kts 278°
2026-04-22 19:48 48.02633 16.83872 3993 ft 189 kts 285°
2026-04-22 19:48 48.03003 16.82054 3992 ft 179 kts 299°
2026-04-22 19:48 48.03503 16.80339 3980 ft 182 kts 300°
2026-04-22 19:49 48.04044 16.78609 3711 ft 183 kts 301°
2026-04-22 19:49 48.04587 16.76923 3475 ft 176 kts 302°
2026-04-22 19:49 48.05109 16.75318 3232 ft 166 kts 302°
2026-04-22 19:49 48.05589 16.73843 3036 ft 154 kts 303°
2026-04-22 19:50 48.06067 16.72389 2839 ft 155 kts 303°
2026-04-22 19:50 48.06536 16.70954 2626 ft 153 kts 303°
2026-04-22 19:50 48.07002 16.69525 2410 ft 153 kts 303°
2026-04-22 19:50 48.07463 16.68111 2198 ft 149 kts 303°
2026-04-22 19:51 48.07906 16.66748 1984 ft 143 kts 303°
2026-04-22 19:51 48.08346 16.65402 1785 ft 145 kts 303°
2026-04-22 19:51 48.08795 16.64031 1602 ft 148 kts 301°
2026-04-22 19:51 48.09240 16.62661 1385 ft 148 kts 300°
2026-04-22 19:52 48.09695 16.61267 1175 ft 147 kts 299°
2026-04-22 19:52 48.10140 16.59898 983 ft 145 kts 297°
2026-04-22 19:52 48.10575 16.58559 795 ft 144 kts 297°
2026-04-22 19:52 48.11028 16.57177 636 ft 146 kts 298°
2026-04-22 19:53 48.11430 16.55949 628 ft 116 kts 296°
2026-04-22 19:53 48.11717 16.55071 621 ft 71 kts 296°
2026-04-22 19:53 48.11866 16.54610 625 ft 27 kts 296°
2026-04-22 19:53 48.11948 16.54362 628 ft 26 kts 296°
2026-04-22 19:54 48.12029 16.54115 628 ft 26 kts 296°
2026-04-22 19:54 48.12156 16.53981 621 ft 23 kts